Home   Weather   Moss   Past weeks

Flag for Norway Past Weather in Moss, Norway — Yesterday and Last 2 Weeks

Now
43 °F

Light rain. Mostly cloudy.


Feels Like: 36 °F
Forecast: 30 / 36 °F
Wind: 14 mph from Southeast

Location: Rygge

Current Time: Feb 28, 2017 at 4:40:54 am

Latest Report: Feb 28, 2017 at 3:50 am


Visibility: 4 mi

Pressure: 28.97 "Hg

Humidity: 93%

Dew Point: 41 °F

Location of MossLocation

Past Weather in Moss — Graph

°F

Moss Temperature Yesterday

Maximum temperature yesterday: 41 °F (at 4:20 am)
Minimum temperature yesterday: 34 °F (at 12:20 am)
Average temperature yesterday: 38 °F

High & Low Weather Summary for the Past Weeks

 TemperatureHumidityPressure
High46 °F (Feb 20, 6:50 pm)100% (Feb 13, 7:50 am)30.72 "Hg (Feb 13, 7:50 am)
Low14 °F (Feb 14, 5:20 am)32% (Feb 23, 3:50 pm)28.65 "Hg (Feb 22, 3:50 pm)
Average32 °F87%29.70 "Hg
* Reported Feb 13 3:20 am — Feb 28 3:20 am, Moss, Weather by CustomWeather, © 2017

Note: Actual official high and low records may vary slightly from our data, if they occured in-between our weather recording intervals... More about our weather records

Advertising

Moss Weather History for the Previous 24 Hours

Scroll right to see more
 ConditionsComfort  
Time TempWeatherWind HumidityBarometerVisibility
3:20 am
Tue, Feb 28
41 °FLight rain. Low clouds.13 mph100%28.97 "Hg4 mi
2:50 am41 °FLight rain. Partly cloudy.12 mph100%29.00 "Hg4 mi
2:20 am41 °FLight rain. Mostly cloudy.13 mph100%29.00 "Hg5 mi
1:50 am41 °FDrizzle. Mostly cloudy.13 mph100%29.03 "HgN/A
1:20 am41 °FRain. Mostly cloudy.9 mph100%29.06 "HgN/A
12:50 am39 °FRain. Partly cloudy.9 mph100%29.09 "HgN/A
12:20 am39 °FRain. Mostly cloudy.8 mph100%29.12 "HgN/A
11:50 pm
Mon, Feb 27
39 °FRain. Partly cloudy.5 mph100%29.12 "HgN/A
11:20 pm39 °FRain. Low clouds.5 mph100%29.15 "Hg6 mi
10:50 pm39 °FLight rain. Mostly cloudy.7 mph100%29.18 "HgN/A
10:20 pm39 °FRain. Overcast.7 mph100%29.18 "Hg6 mi
9:50 pm39 °FDrizzle. Mostly cloudy.6 mph100%29.21 "HgN/A
9:20 pm39 °FLight rain. Mostly cloudy.6 mph100%29.21 "Hg4 mi
8:50 pm39 °FLight rain. Overcast.5 mph100%29.24 "Hg4 mi
8:20 pm39 °FLight rain. Mostly cloudy.6 mph93%29.24 "Hg2 mi
7:50 pm37 °FRain. Mostly cloudy.5 mph100%29.27 "Hg0 mi
7:20 pm37 °FRain. Dense fog.5 mph100%29.27 "Hg0 mi
6:20 pm37 °FFog.5 mph100%29.30 "Hg0 mi
5:50 pm37 °FFog.3 mph100%29.30 "Hg0 mi
5:20 pm39 °FFog.2 mph100%29.30 "Hg0 mi
4:50 pm39 °FFog.5 mph100%29.33 "Hg0 mi
4:20 pm39 °FFog.6 mph93%29.33 "Hg0 mi
3:50 pm37 °FFog.7 mph100%29.33 "Hg0 mi
3:20 pm37 °FFog.8 mph100%29.33 "Hg0 mi
2:50 pm37 °FFog.8 mph100%29.33 "Hg0 mi
1:50 pm37 °FFog.9 mph100%29.33 "Hg1 mi
1:20 pm39 °FDense fog.10 mph93%29.33 "Hg1 mi
12:50 pm39 °FFog.8 mph100%29.36 "Hg0 mi
12:20 pm39 °FFog.8 mph100%29.36 "Hg0 mi
11:50 am39 °FFog.7 mph100%29.33 "Hg0 mi
11:20 am39 °FFog.6 mph93%29.36 "Hg0 mi
10:50 am39 °FFog.8 mph100%29.33 "Hg0 mi
10:20 am39 °FFog.9 mph93%29.33 "Hg0 mi
9:50 am39 °FFog.9 mph100%29.33 "Hg0 mi
9:20 am37 °FFog.10 mph100%29.33 "Hg0 mi
8:50 am39 °FFog.13 mph100%29.30 "Hg0 mi
8:20 am39 °FFog.13 mph100%29.30 "Hg0 mi
7:50 am39 °FLight rain. Low clouds.13 mph100%29.30 "Hg0 mi
7:20 am41 °FFog.15 mph93%29.30 "Hg1 mi
6:50 am41 °FLow clouds.16 mph100%29.30 "Hg3 mi
6:20 am41 °FDrizzle. Low clouds.16 mph100%29.30 "Hg2 mi
5:50 am41 °FDrizzle. Low clouds.16 mph100%29.30 "Hg2 mi
5:20 am41 °FLight rain. Low clouds.14 mph100%29.33 "Hg3 mi
4:50 am41 °FDrizzle. Low clouds.14 mph100%29.33 "Hg2 mi
4:20 am41 °FDrizzle. Low clouds.14 mph93%29.33 "Hg1 mi
Weather by CustomWeather, © 2017

See weather overviewHow to use our weather pages